カタログに戻る

STARLINK-30565

運用中通信VLEO
NORAD 58034·PAYLOAD·🇺🇸 United States

打ち上げ Oct 9, 2023 から Vandenberg Space Force Base

Loading…

次のパス (今後24時間)

TLE

最新Source: CelesTrak SupGP

元期: Sep 15, 2026, 02:00 UTC

1 58034C 23156G   26258.08381944  .00010523  00000+0  31083-3 0  2583
2 58034  53.1573 276.7342 0001273  93.1036  58.0563 15.34392004    11

AllMySatでSTARLINK-30565をリアルタイム追跡

Download on the App Store